Wind_Speed
18 18 17 19 23 29 15 7 2 7 12 2 3 1 1 4 5 5 5 5 9 8 5 6 5 4 1 8 5 5 4 3 4 10 4 2 6 1 2 1 6 3 4 3
17 17 14 16 19 21 12 3 3 3 6 2 3 2 4 5 3 5 3 5 7 4 3 4 7 6 1 6 3 2 5 2 4 4 4 2 3 2 0 5 5 3 5 3
17 16 14 13 15 17 9 3 3 0 2 2 2 2 5 3 8 8 6 7 7 5 6 9 7 4 2 5 7 15 4 3 5 6 10 3 2 2 2 2 3 7 2 11
17 15 14 10 12 12 6 2 2 2 3 1 5 4 4 5 4 4 4 4 10 5 4 5 8 10 5 10 3 3 3 4 7 8 10 5 4 3 2 1 2 3 6 10
17 16 15 9 10 10 4 2 2 1 4 5 6 6 6 8 5 5 6 11 7 7 9 9 16 16 12 6 5 5 4 4 3 6 8 7 9 5 7 3 0 4 6 5
18 16 13 11 10 8 4 3 1 2 5 4 3 4 6 6 4 10 12 10 9 11 15 13 11 10 10 7 8 10 5 2 1 5 2 3 6 8 4 3 3 5 1 4
21 19 17 15 14 13 11 8 5 3 5 8 7 7 7 12 11 12 9 10 13 5 4 7 10 17 16 5 4 5 3 3 2 5 3 1 5 3 3 2 4 2 3 5
24 23 21 20 18 17 18 12 7 3 4 8 11 17 14 12 12 14 13 11 5 5 4 4 6 4 4 6 6 5 3 2 3 1 3 2 1 4 5 5 4 3 1 5
29 26 25 24 23 22 20 23 22 4 2 7 11 4 6 6 6 4 9 5 5 4 3 3 4 4 2 2 5 6 6 2 3 3 3 6 3 3 3 3 3 2 2 4
32 29 28 26 26 26 23 18 28 6 4 5 8 7 5 4 3 3 2 4 4 6 3 4 4 5 5 4 5 5 3 3 9 10 10 3 3 5 4 4 4 1 2 2
34 34 31 30 28 28 28 18 27 17 4 7 7 5 5 3 4 4 4 1 3 4 4 3 3 3 3 1 4 5 5 3 3 2 3 8 1 7 4 3 2 1 2 1
34 35 34 33 32 30 27 24 23 35 4 3 6 9 13 15 11 4 5 3 5 6 5 2 1 2 2 4 3 4 2 5 3 5 3 4 2 5 3 4 1 3 3 4
39 35 36 34 34 30 28 24 19 14 1 4 3 4 7 10 8 10 3 3 4 4 2 1 1 5 1 2 3 4 2 3 2 2 3 8 5 3 5 3 1 3 4 3
39 38 35 34 33 33 30 21 22 18 3 3 2 6 5 1 4 6 5 2 2 2 1 2 3 3 2 1 1 1 1 4 3 3 3 7 4 5 4 4 4 4 6 6
35 36 35 34 32 31 25 27 25 32 6 3 2 8 3 3 1 0 1 2 2 1 2 2 1 2 0 2 1 3 2 3 3 2 3 2 6 5 6 5 6 6 6 8
31 31 31 29 29 26 7 3 14 21 14 2 2 4 4 9 11 12 9 4 3 2 1 2 3 1 0 2 3 3 4 4 3 2 4 3 3 5 8 4 6 7 6 8
29 27 26 24 24 20 4 4 4 20 20 2 2 3 3 5 5 3 3 8 3 3 2 1 2 2 2 2 3 7 6 5 3 6 4 1 5 2 6 6 9 12 13 11
26 23 21 23 22 15 6 10 18 22 8 1 2 2 3 7 2 2 2 1 2 3 2 0 1 2 0 3 6 6 5 3 6 5 3 2 3 5 4 8 9 5 5 7
25 4 15 6 4 3 7 12 12 9 6 3 2 4 3 3 2 1 2 1 2 1 1 2 1 2 4 2 6 6 4 3 2 3 3 2 1 2 4 4 5 3 5 4
17 10 4 2 4 22 16 4 2 3 3 3 2 1 2 2 1 2 2 1 2 2 0 1 1 2 2 2 3 6 5 4 3 3 2 3 2 3 4 4 6 6 6 11
6 2 2 10 17 3 2 2 2 2 1 2 2 3 3 3 1 2 2 1 1 1 1 1 2 3 4 5 4 3 4 3 3 3 2 3 4 4 4 6 8 14 13 11
13 19 13 6 2 1 3 2 2 3 2 2 2 2 2 2 1 2 1 0 1 1 2 0 3 2 2 5 4 4 5 4 2 4 5 7 8 9 10 11 15 16 17 16
13 4 4 4 2 4 6 7 3 4 5 4 3 3 2 2 0 2 2 3 1 0 0 3 3 3 3 4 4 2 4 4 2 5 7 7 9 10 11 15 17 16 16 17
3 6 7 7 6 5 2 2 4 3 5 7 5 3 2 1 2 1 3 1 0 1 1 5 2 5 5 4 2 4 4 5 5 6 8 9 10 13 15 15 14 14 15 17
1 2 5 2 3 4 4 6 4 3 5 4 4 3 1 2 3 1 3 2 3 5 4 2 2 4 4 2 2 4 4 4 4 6 7 10 12 12 16 16 13 14 14 14
3 4 4 5 4 3 3 6 5 2 3 2 1 3 3 2 2 3 5 4 5 3 2 2 3 3 3 3 3 5 6 6 8 9 10 11 12 13 16 17 15 12 10 8
4 4 5 3 6 4 3 3 3 3 3 2 2 4 2 2 2 1 2 4 3 3 1 2 4 4 3 4 4 6 6 7 8 9 9 12 13 13 13 12 12 10 10 6
Wind_Direction
329 331 336 346 351 348 0 334 270 357 347 239 129 62 88 336 275 225 251 268 263 258 304 287 270 252 297 54 34 320 312 256 285 298 164 163 90 84 92 15 310 309 255 89
322 325 332 345 351 354 339 337 280 331 335 42 359 46 276 211 241 232 210 257 223 334 285 310 271 273 330 347 5 326 344 286 309 312 327 204 102 34 47 257 241 232 314 102
315 318 325 337 346 347 344 337 330 53 69 44 47 4 275 242 200 248 237 257 264 272 256 234 259 248 274 180 252 287 102 244 200 248 263 161 283 24 23 285 276 328 328 314
307 309 314 322 333 339 342 14 49 40 314 294 325 167 249 257 271 211 198 267 238 215 260 289 257 269 304 300 340 97 156 262 262 276 293 256 203 182 142 117 260 252 325 319
302 300 304 298 315 323 262 240 208 165 283 304 250 235 200 216 216 181 237 217 256 263 241 224 274 279 278 256 182 166 189 260 26 281 261 211 247 183 167 188 272 283 306 275
297 290 289 279 288 299 230 202 145 147 226 215 216 226 211 216 156 228 230 247 268 254 261 274 290 292 287 259 261 270 231 210 326 260 173 324 282 183 192 164 178 172 279 260
285 285 272 269 267 262 257 195 148 171 241 218 220 234 228 248 224 232 238 240 257 233 298 327 277 262 257 171 226 190 211 158 217 257 8 287 244 138 150 163 177 181 299 305
280 277 271 266 266 264 262 226 171 189 245 242 258 253 255 261 243 255 262 258 283 17 31 280 285 274 152 235 197 181 142 174 279 202 227 249 246 192 178 160 257 157 287 326
280 273 271 265 264 267 265 252 222 169 253 217 240 293 246 244 242 258 238 149 185 118 230 239 234 251 178 226 148 159 160 80 146 352 272 265 200 143 92 77 267 133 56 330
274 276 269 270 268 270 267 249 233 177 235 225 234 231 233 171 191 232 331 178 159 169 212 233 234 240 169 220 177 172 194 202 219 235 256 229 185 147 132 100 219 202 182 280
272 274 274 271 269 268 268 263 237 207 220 241 220 198 202 175 199 208 137 157 203 170 224 238 237 236 210 67 196 181 173 218 220 243 265 267 75 142 203 185 299 171 343 324
277 271 273 272 272 274 272 266 246 222 192 267 215 230 240 243 222 195 180 194 155 201 209 225 342 264 214 188 249 356 256 188 191 174 224 182 104 121 163 169 282 7 336 316
279 275 268 268 267 270 272 272 221 188 202 273 188 216 211 226 205 193 173 198 189 201 100 114 241 247 359 236 238 115 156 161 195 69 184 161 148 152 112 99 88 305 325 341
283 282 276 266 268 270 277 257 239 196 132 243 152 134 99 146 228 228 240 39 95 91 143 192 217 217 29 337 266 356 118 141 213 124 134 120 148 94 88 47 12 6 359 339
288 283 283 276 268 274 277 274 214 207 173 198 165 110 73 66 61 352 217 228 219 169 179 178 160 74 156 75 10 213 160 179 179 202 78 90 91 31 57 39 5 346 356 328
292 288 282 283 269 261 244 272 206 199 188 140 221 72 41 94 70 53 42 31 34 50 52 95 91 70 179 241 232 194 117 103 97 103 36 14 316 80 39 13 349 332 309 319
296 290 280 279 267 202 172 215 156 179 170 132 199 171 78 23 91 35 19 42 45 39 73 51 102 109 357 294 247 141 110 95 87 67 35 297 52 356 348 353 337 320 317 324
299 292 284 285 178 147 108 105 143 153 108 146 221 99 131 355 91 108 325 87 101 26 79 8 110 122 324 250 126 117 95 61 96 73 60 226 332 347 356 355 339 338 327 330
300 232 136 120 68 103 123 141 158 85 70 184 157 178 175 340 86 106 123 323 96 335 106 77 296 130 225 211 148 124 107 143 171 4 317 291 34 326 345 342 333 324 297 303
155 125 104 103 66 125 116 66 74 34 25 26 83 229 122 325 185 97 152 332 104 189 77 86 232 255 137 95 108 117 127 136 98 63 12 9 334 335 309 285 276 271 281 300
150 102 86 122 136 86 49 102 187 131 117 63 70 30 122 359 160 102 1 96 90 215 175 235 222 266 194 154 127 131 127 130 205 201 232 245 223 267 290 302 299 303 301 296
162 121 112 137 157 105 171 149 120 225 185 126 130 89 70 89 350 120 179 137 120 195 148 235 257 240 144 137 177 197 169 175 247 249 252 279 286 286 288 286 291 297 301 301
114 91 118 162 130 191 204 187 190 172 161 160 156 120 107 139 73 78 177 169 153 89 215 234 223 182 159 164 147 181 184 195 226 276 261 275 288 296 296 298 301 299 297 302
158 156 167 198 174 214 165 80 105 97 122 127 110 103 97 107 103 74 156 70 49 187 243 238 220 198 186 167 187 136 232 207 235 262 273 271 289 297 308 308 306 298 294 301
161 234 193 154 65 61 87 100 92 66 110 110 102 84 120 97 108 346 109 82 242 202 229 210 193 167 149 186 217 212 227 238 247 267 264 272 291 296 304 313 311 302 293 296
50 60 74 107 85 108 81 94 101 96 114 87 69 121 132 114 117 146 209 156 223 232 172 166 133 160 195 208 219 225 232 229 246 265 270 276 284 293 302 309 310 306 300 297
49 32 37 34 71 91 86 92 99 131 156 120 138 143 142 108 93 228 181 203 200 161 149 148 137 155 184 191 210 242 247 247 254 269 268 276 291 302 301 295 309 310 312 326
Height
817 814 812 809 805 799 793 791 787 782 780 780 781 792 799 799 796 793 797 795 796 797 792 795 789 781 771 775 782 794 777 788 788 770 776 772 783 794 798 793 783 766 753 772
815 813 810 808 805 802 799 797 791 783 781 786 787 789 791 797 795 794 795 794 789 788 795 810 786 781 771 775 782 791 782 789 800 778 786 773 782 792 798 797 782 773 756 767
813 810 809 807 805 803 800 797 792 785 786 789 793 797 792 789 788 791 790 791 791 794 794 790 795 784 775 777 778 774 784 791 798 796 785 791 789 794 793 796 779 791 776 776
810 808 806 806 804 802 801 800 798 802 794 788 794 801 791 791 791 789 790 792 791 796 805 791 783 775 778 773 771 781 788 792 781 775 771 766 779 788 801 799 808 798 797 783
807 805 803 803 802 801 800 798 800 806 797 794 793 787 785 785 783 790 786 789 783 783 789 785 782 778 774 773 778 786 788 786 788 799 767 763 768 783 801 798 802 800 799 791
802 801 800 800 799 799 796 796 798 798 791 787 788 779 776 773 781 777 774 775 777 775 771 767 767 767 767 773 773 774 776 782 797 796 774 789 778 793 803 816 819 821 816 810
796 795 795 794 793 794 791 789 792 796 784 781 776 770 769 770 771 773 767 768 771 768 763 765 764 759 759 770 773 772 779 784 783 797 799 804 795 789 795 802 818 811 809 802
790 789 788 788 787 787 785 782 783 786 775 770 765 762 760 758 761 763 760 760 762 763 767 770 762 754 754 755 759 775 776 776 788 802 799 792 792 787 793 803 811 805 807 800
781 781 781 780 780 779 776 773 774 777 774 762 755 759 756 758 756 758 751 754 759 765 767 763 780 762 750 755 759 763 772 784 795 803 788 778 789 797 799 796 805 801 802 800
772 772 772 773 772 772 769 764 764 765 765 753 755 752 754 755 756 755 751 751 760 762 763 761 756 749 738 759 769 780 775 781 777 772 758 767 795 795 797 803 803 799 801 800
763 762 763 763 763 763 762 753 754 756 755 744 745 745 748 750 750 747 753 756 755 761 761 752 741 742 748 756 756 771 766 771 777 768 756 763 785 787 792 801 796 795 797 798
751 751 752 753 753 751 752 746 744 744 744 740 738 737 739 739 740 743 745 743 747 745 748 745 750 746 752 756 756 766 776 777 782 782 784 794 790 793 794 794 794 794 796 793
740 740 740 740 741 741 741 738 737 738 740 735 735 734 735 735 736 737 739 739 740 740 741 745 745 749 743 749 751 766 778 779 785 781 787 783 792 789 790 793 794 793 791 791
730 729 729 729 730 731 732 728 728 728 731 731 728 731 734 735 734 735 736 737 738 739 740 742 742 742 752 760 765 764 774 774 772 775 780 783 786 787 790 791 791 791 791 791
719 719 719 719 721 722 720 720 715 715 719 718 723 729 735 735 735 735 736 737 738 737 739 742 747 752 756 769 768 768 778 785 780 776 788 790 787 791 791 793 794 793 793 791
709 709 709 710 711 712 713 713 711 711 713 718 721 735 737 738 738 739 739 739 741 743 744 751 762 766 766 765 764 784 781 784 788 790 790 791 791 792 794 795 795 793 792 790
700 699 699 700 702 701 708 705 703 706 712 718 722 726 741 742 743 747 746 746 749 749 755 758 760 767 771 769 765 778 781 785 788 791 794 793 794 798 796 795 795 794 791 789
692 691 691 690 690 697 704 704 705 707 711 716 716 729 739 745 743 748 751 747 753 760 763 766 764 772 773 777 779 780 784 788 792 795 796 798 797 796 796 796 794 794 792 789
684 683 686 691 694 698 704 706 708 709 716 714 721 717 727 747 748 749 752 752 757 768 767 771 771 775 776 782 780 783 792 798 799 797 796 797 798 799 798 797 796 796 793 790
679 681 688 694 699 700 705 710 712 715 723 727 732 740 742 748 745 751 753 755 759 767 781 779 781 770 787 786 789 789 794 795 797 802 800 800 800 800 800 798 796 793 791 788
678 683 694 700 702 703 707 713 712 723 727 734 742 742 745 754 746 752 761 756 760 766 779 777 778 774 786 787 790 791 792 794 796 797 797 797 798 799 798 796 793 791 788 786
670 676 691 700 701 703 704 709 723 720 716 739 738 746 748 754 755 754 764 756 766 766 775 780 777 779 785 787 791 791 792 793 794 795 795 795 795 795 794 793 790 788 786 783
669 677 685 688 700 698 698 705 710 720 729 738 742 747 751 756 755 758 758 760 770 774 780 771 778 786 787 788 790 791 790 792 793 793 793 793 792 792 792 789 787 784 782 780
661 667 679 674 682 680 684 690 700 721 725 730 738 746 747 754 755 762 756 777 774 780 786 784 786 785 786 787 788 790 791 790 791 791 791 790 790 789 787 786 784 781 779 776
661 657 654 685 701 704 710 712 718 726 730 734 742 747 747 755 763 764 768 781 783 774 773 780 781 784 785 787 787 787 788 788 789 788 788 787 787 786 784 781 780 778 775 774
678 682 693 699 701 711 713 720 724 727 731 735 736 744 748 758 759 764 765 765 768 771 777 778 782 783 784 784 784 783 784 785 786 786 785 785 784 783 781 778 776 774 773 771
689 699 696 700 699 708 714 720 727 731 730 728 732 737 748 769 765 762 764 770 772 772 774 773 775 778 780 780 781 781 781 782 783 783 783 782 781 780 778 776 773 772 771 770